세미나안내

[2014 03 12] 정기세미나 1st

Fe Based Superconductor Thin Films: From Synthesis to Artificially Engineered Superlattices

MSE Graduate Students and Researchers

관리자 | 2014.03.17 13:07 | 조회 2730


Reception: MSE Graduate Students and Researchers

Reference: MSE Professors

Subject: The 1st Seminar - Spring Semester, 2014 

 

 Date: 2014. 3. 12(Wed), 17:00 ~ 18:15

 Place: Engineering Building, Room.202 Multimedia Room

 Title: Fe Based Superconductor Thin Films: From Synthesis to Artificially Engineered Superlattices

 Speaker: Prof. Sanghan Lee (Gwangju Institute of Science and Technology)

Host of a Seminar: Prof. Junwoo Son

Speaker Language: ENGLISH

 

Abstract:

The synthesis of high quality single crystal thin films and multilayers of pnictide superconductors is critical to explore their intrinsic properties and evaluate novel device applications. In this study, we have grown genuine epitaxial thin films of Co-doped BaFe2As2 (Ba-122) by employing template engineering on single-crystal (001) SrTiO3 (STO) template on (001) (La,Sr)(Al,Ta)O3 substrates with strong c-axis flux pinning[1]. Beyond the single layer Ba-122 thin films, artificial layered pnictide superlattices offer unique opportunity towards tailoring superconducting properties and understanding the mechanisms of superconductivity by creating model structures which do not exist in nature. The synthesis of artificial layered superlattices of pnictide superconductors opens many avenues for superconducting electronic device applications and for model experiment in superconductivity[2].

 

[1] S. Lee et al., Template engineering of Co-doped BaFe2As2 single-crystal thin films, Nat. Mater., 9, 397-402 (2010)

 

[2] S. Lee et al., Artificially engineered superlattices of pnictide superconductors, Nat. Mater., 12, 392-396, (2013)

 

Department of Materials Science and Engineering

 



204개(8/11페이지)
세미나안내
번호 제목 글쓴이 조회 날짜
64 [2015 01 13] 특별세미나 (BK21PLUS) 관리자 2383 2014.10.23 08:50
63 [2014 12 26] 특별세미나 (BK21PLUS) 관리자 2343 2014.10.23 08:50
62 [2014 12 10] 정기세미나 13th 관리자 2583 2014.09.29 10:34
61 [2014 11 26] 정기세미나 12th 관리자 2584 2014.09.29 10:34
60 [2014 11 19] 정기세미나 11th 관리자 132974 2014.09.29 10:34
59 [2014 11 12] 정기세미나 10th 관리자 2939 2014.09.29 10:34
58 [2014 11 05] 정기세미나 9th 관리자 2640 2014.09.29 10:34
57 [2014 10 31] 특별세미나 (BK21PLUS) 관리자 2309 2014.10.23 08:50
56 [2014 10 30] 특별세미나 (BK21PLUS) 관리자 2718 2014.10.23 08:50
55 [2014 10 29] 정기세미나 8th 관리자 3615 2014.09.29 10:34
54 [2014 10 24] 특별세미나 (BK21PLUS) 첨부파일 관리자 2268 2014.10.23 08:50
53 [2014 10 15] 정기세미나 7th 관리자 2395 2014.09.29 10:34
52 [2014 10 08] 정기세미나 6th 관리자 2205 2014.09.29 10:34
51 [2014 10 01] 정기세미나 5th 관리자 2275 2014.09.29 10:34
50 [2014 09 24] 정기세미나 4th 관리자 2272 2014.09.23 09:10
49 [2014 09 10] 정기세미나 3rd 관리자 2607 2014.09.16 16:40
48 [2014 09 10] 정기세미나 2nd 첨부파일 관리자 2523 2014.09.02 13:09
47 [2014 09 03] 정기세미나 1st 첨부파일 관리자 2416 2014.09.02 13:09
46 [2014 09 02] 특별세미나 (BK21PLUS) 첨부파일 관리자 2405 2014.09.02 13:06
45 [2014 06 11] 정기세미나 12th 관리자 2524 2014.06.09 16:03